                ,  1.160,  1.308,  1.456,  1.604,  1.751,  1.899,  2.047,  2.194,  2.342,  2.490,  2.638,  2.785,  2.933,  3.081,  3.229,  3.376,  3.524,  3.672,  3.819,  3.967,  4.115,  4.263,  4.410,  4.558,  4.706,  4.853,  5.001,  5.149,  5.297,  5.444
2005/08/30 00:00,  999.0,    0.5,    0.5,  999.0,  999.0,  999.0,  999.0,  999.0,   -3.1,   -3.7,   -2.5,   -2.3,   -2.7,   -2.6,   -1.4,   -0.8,   -0.8,    0.1,    0.9,    2.3,  999.0,  999.0,  999.0,  999.0,  999.0,  999.0,  999.0,  999.0,  999.0,  999.0
2005/08/30 00:10,    0.1,   -0.6,    0.1,    0.6,    1.2,    1.3,   -0.3,   -1.1,   -1.5,   -2.1,   -1.8,   -1.3,   -1.5,   -1.4,   -0.7,   -0.3,    0.1,    1.3,    2.2,    1.9,  999.0,  999.0,  999.0,  999.0,  999.0,  999.0,  999.0,  999.0,  999.0,  999.0
2005/08/30 00:20,   -0.3,   -0.1,    0.2,    0.9,    0.7,    0.7,    0.0,   -0.8,   -1.6,   -2.1,   -1.9,   -1.2,   -1.0,   -1.0,   -0.4,   -0.8,   -0.6,    0.6,    1.1,    1.1,    1.0,  999.0,  999.0,  999.0,  999.0,  999.0,  999.0,  999.0,  999.0,  999.0
2005/08/30 00:30,    0.6,   -0.4,    0.4,    0.9,    0.4,    1.0,   -0.3,   -0.3,   -1.1,   -2.1,   -1.6,   -1.7,   -1.4,   -1.5,   -1.3,   -0.9,   -0.3,    0.7,    0.5,    1.0,   -0.2,  999.0,  999.0,  999.0,  999.0,  999.0,  999.0,  999.0,  999.0,  999.0
2005/08/30 00:40,    0.5,    0.2,    0.1,    1.1,    0.7,    0.5,    0.1,   -0.7,   -0.7,   -1.1,   -1.8,   -1.7,   -1.4,   -1.6,   -0.9,   -0.7,   -0.2,    0.7,    0.8,   -0.1,   -1.7,  999.0,  999.0,  999.0,  999.0,  999.0,  999.0,  999.0,  999.0,  999.0
2005/08/30 00:50,   -0.5,   -0.4,   -0.1,   -0.4,   -0.6,   -0.7,   -1.3,   -1.2,   -1.1,   -1.7,   -2.0,   -1.5,   -1.3,   -1.0,   -0.6,   -1.0,   -0.8,    0.0,   -0.4,   -1.2,   -0.9,   -3.0,  999.0,   -0.3,   -0.8,   -0.1,    0.4,    1.1,    1.6,    1.5
2005/08/30 01:00,    0.5,   -0.6,   -0.5,    0.1,    0.1,   -0.2,   -1.0,   -1.0,   -1.8,   -2.6,   -3.6,   -3.8,   -4.4,   -3.8,   -4.3,   -3.9,   -3.3,   -3.2,   -2.5,   -3.6,   -2.5,   -2.9,   -1.0,   -2.1,   -3.1,   -0.3,    0.4,    1.3,    1.9,    2.0
2005/08/30 01:10,   -0.4,    0.2,    0.2,   -1.4,   -0.2,    1.1,    2.1,    0.3,    0.0,   -0.8,   -1.9,   -1.7,   -2.1,   -3.3,   -0.8,  999.0,  999.0,  999.0,  999.0,  999.0,  999.0,  999.0,  999.0,  999.0,  999.0,  999.0,  999.0,  999.0,  999.0,  999.0
2005/08/30 01:20,  999.0,    2.2,  999.0,  999.0,  999.0,  999.0,  999.0,  999.0,  999.0,  999.0,  999.0,  999.0,  999.0,  999.0,  999.0,  999.0,  999.0,  999.0,  999.0,  999.0,  999.0,   -0.1,   -1.1,  999.0,  999.0,  999.0,    1.6,    2.7,    1.9,    1.8
2005/08/30 01:30,  999.0,  999.0,  999.0,  999.0,  999.0,  999.0,  999.0,  999.0,  999.0,  999.0,  999.0,  999.0,  999.0,  999.0,  999.0,  999.0,  999.0,  999.0,  999.0,  999.0,  999.0,  999.0,  999.0,    1.5,    3.7,    3.7,    2.9,    2.6,    2.0,    3.0
2005/08/30 01:40,  999.0,  999.0,  999.0,    0.1,    1.1,  999.0,    1.8,  999.0,    1.0,   -1.7,   -1.7,   -1.5,   -0.6,   -1.3,   -1.3,   -1.7,   -0.9,   -0.7,    0.8,    1.2,   -0.1,   -0.3,    0.3,    0.8,    2.8,    4.1,    3.1,    2.2,    2.1,    2.2
2005/08/30 01:50,    0.2,    1.6,   -0.1,   -0.7,   -0.1,    1.5,    1.3,    0.5,   -0.3,   -0.6,   -1.7,   -1.9,   -2.1,   -1.1,   -1.2,   -1.6,   -2.2,    0.4,    0.1,   -0.2,  999.0,   -0.2,    1.2,  999.0,    0.8,    3.6,    2.4,    1.3,    2.0,    1.5
2005/08/30 02:00,    2.6,    1.5,    1.3,  999.0,    0.1,    0.5,    0.8,  999.0,   -1.1,  999.0,  999.0,  999.0,  999.0,  999.0,  999.0,  999.0,  999.0,  999.0,  999.0,  999.0,  999.0,   -0.3,   -0.8,    1.9,    2.3,    2.2,    1.4,    1.8,    2.1,    1.1
2005/08/30 02:10,  999.0,  999.0,  999.0,  999.0,   -0.1,    0.4,    0.5,    1.3,   -0.1,   -1.2,   -2.4,   -1.9,   -2.0,   -2.5,   -2.5,   -2.3,   -2.3,   -2.3,   -0.5,   -1.0,   -1.2,  999.0,  999.0,  999.0,    2.2,    1.9,    1.2,    0.9,    1.1,    0.6
2005/08/30 02:20,    1.4,    0.8,   -0.6,    0.2,   -0.0,    0.4,   -0.1,    0.2,   -0.6,   -2.2,   -3.3,   -3.7,   -4.0,   -4.9,   -4.7,   -3.5,   -3.9,   -2.3,   -0.7,   -1.4,   -1.7,   -0.5,    1.0,    2.6,    3.5,    2.6,    2.5,    2.4,    2.4,    1.9
2005/08/30 02:30,    1.8,   -0.5,    1.2,    0.5,    0.5,   -0.3,    0.2,    0.8,   -0.5,   -2.3,   -1.6,   -2.0,   -1.3,   -1.7,   -2.8,   -3.5,   -3.8,   -3.3,   -2.4,   -2.5,   -1.9,   -2.6,   -1.1,    1.3,    2.5,    2.2,    2.4,    2.8,    2.6,    2.1
2005/08/30 02:40,    0.6,   -0.0,    0.1,    0.3,    0.6,    0.2,    0.4,    1.1,    1.3,   -0.0,   -1.6,   -1.7,   -2.8,   -4.3,   -4.3,   -5.9,   -5.4,   -4.2,   -3.9,   -2.8,   -3.1,  999.0,    1.5,    2.4,    2.1,  999.0,    2.5,    3.4,    2.9,    2.7
2005/08/30 02:50,   -0.5,    0.0,    0.2,    1.0,    1.3,    0.3,    0.3,    0.7,    1.0,   -0.1,   -0.9,   -1.1,   -2.5,   -3.8,   -5.0,   -4.9,   -4.7,   -4.0,   -3.9,   -2.5,   -0.1,   -0.2,    1.4,    1.9,    1.8,    2.3,    3.8,    3.7,    2.7,    2.6
2005/08/30 03:00,   -0.0,    0.5,    0.6,    0.9,    1.1,    1.0,    0.4,    1.2,    1.0,   -0.1,   -0.3,   -0.9,   -3.8,   -4.2,   -5.7,  999.0,   -3.2,  999.0,  999.0,  999.0,   -2.5,    0.3,  999.0,    1.5,    1.1,    3.9,    2.9,    1.8,    1.2,    0.2
2005/08/30 03:10,   -0.1,    1.2,    1.5,    1.2,   -0.1,    1.9,    0.7,    1.7,    2.3,    0.5,    1.8,  999.0,   -1.3,  999.0,   -4.1,   -3.6,  999.0,  999.0,  999.0,  999.0,   -0.4,    1.7,    1.7,    2.2,    2.9,    3.5,    2.8,    2.0,    1.4,    1.3
2005/08/30 03:20,   -0.0,    0.6,   -2.2,   -0.6,    0.7,   -0.0,    0.5,   -0.9,   -0.2,   -0.3,   -0.1,   -1.3,  999.0,  999.0,  999.0,  999.0,  999.0,  999.0,  999.0,  999.0,  999.0,    1.2,    1.8,    3.6,    4.1,    3.9,    2.7,    2.2,    2.0,    1.5
2005/08/30 03:30,   -2.6,   -0.6,   -2.8,   -1.0,   -1.4,    5.3,   10.3,    3.7,    5.8,  999.0,  999.0,   -2.5,   -3.9,   -4.8,   -4.8,   -4.0,   -3.2,   -2.1,   -1.6,    0.4,   -0.2,    0.9,    1.8,    3.3,    4.3,    3.2,    2.0,    2.3,    2.1,    1.3
2005/08/30 03:40,   -0.3,    1.3,    0.6,    0.9,    1.3,    0.5,    0.6,    0.7,    0.8,   -0.0,   -1.2,   -2.4,   -3.7,   -4.3,   -3.9,   -3.0,   -2.4,   -1.2,   -0.7,    0.4,  999.0,    2.4,    3.9,    3.8,    4.4,    3.3,    1.8,    2.1,    1.3,    1.5
2005/08/30 03:50,   -0.6,   -0.2,    0.2,    1.2,    0.8,    0.8,    0.2,    0.3,   -0.5,   -0.4,   -1.4,   -3.3,   -4.8,   -4.7,   -3.8,   -3.5,   -2.6,   -1.6,   -0.1,  999.0,  999.0,    3.0,  999.0,  999.0,  999.0,  999.0,  999.0,  999.0,  999.0,  999.0
2005/08/30 04:00,   -0.4,   -1.0,    0.5,    1.0,    1.7,    1.4,    0.5,    0.7,    0.4,    0.4,   -0.3,   -1.1,   -3.7,   -5.0,   -3.8,   -3.4,   -2.6,   -1.6,   -0.7,    0.1,    2.5,    0.6,    3.7,    2.5,    1.6,    2.3,    3.0,    3.5,    2.4,    1.1
2005/08/30 04:10,   -0.1,   -0.4,   -0.2,    0.8,    0.9,    0.8,    0.4,    1.0,    0.4,    0.0,   -0.1,   -0.9,   -2.9,   -4.3,   -4.2,   -3.5,   -3.3,   -2.6,   -0.5,    0.6,    2.0,    3.5,    4.9,    3.3,    2.3,    2.6,    2.7,    3.8,    3.3,    1.1
2005/08/30 04:20,   -0.3,   -0.5,   -0.1,    0.7,    0.8,    0.6,    0.0,    0.6,    0.7,   -0.2,   -0.0,   -0.9,   -2.1,   -4.8,   -4.8,   -4.2,   -3.1,   -2.5,   -1.3,   -0.7,    0.6,    3.5,    4.7,    4.0,    2.8,    2.4,    2.6,    4.0,    4.0,    2.3
2005/08/30 04:30,   -0.6,   -0.9,   -0.3,    0.2,   -0.5,    0.3,   -0.1,    0.8,    1.0,    0.5,    0.3,   -0.4,   -2.7,   -5.0,   -4.8,   -4.7,  999.0,  999.0,   -1.0,    1.2,    1.8,    4.2,    5.0,    2.8,    1.8,    2.0,    3.1,    3.6,    3.7,    2.7
2005/08/30 04:40,   -0.8,   -0.5,    0.3,    0.2,   -0.1,    0.7,   -0.3,    1.1,    1.1,    1.2,    1.0,    0.1,   -2.2,   -4.5,   -3.8,   -3.1,   -1.9,   -0.9,    0.5,    1.4,    2.2,    3.7,    2.9,    1.2,    1.3,    2.7,    3.2,    3.5,    4.0,    3.4
2005/08/30 04:50,   -1.5,   -1.6,   -1.4,   -1.1,   -1.2,    1.0,   -0.2,   -1.4,   -0.6,   -0.3,   -0.2,   -1.5,   -1.3,   -3.5,   -5.4,   -2.9,   -3.2,   -1.9,   -0.1,    1.2,    2.4,    3.0,    1.0,    1.7,    3.5,    4.0,    4.6,    4.2,    4.1,    2.7
2005/08/30 05:00,   -1.6,   -3.1,   -1.0,   -0.7,   -0.2,    0.3,    2.0,   -0.9,    0.4,   -0.1,    1.1,  999.0,  999.0,  999.0,  999.0,  999.0,  999.0,  999.0,  999.0,    1.4,    4.0,    2.4,    1.6,    2.6,    3.8,    3.6,    3.8,    4.6,    3.1,    1.5
2005/08/30 05:10,   -9.4,  999.0,    3.6,  999.0,  999.0,  999.0,  999.0,  999.0,    1.9,  999.0,   -0.3,   -0.6,   -2.5,   -4.1,   -3.7,   -2.9,   -0.1,    0.6,    1.5,    3.1,    3.4,    2.7,    3.1,    2.8,    3.5,    3.2,    3.5,    3.5,    2.3,    1.0
2005/08/30 05:20,  999.0,   -1.6,    0.5,    0.6,    0.4,    1.0,   -0.3,   -0.3,    0.3,    0.6,   -0.1,   -0.5,   -2.1,   -2.4,   -2.0,   -1.1,    0.2,    1.1,    2.5,    2.4,    1.3,    2.0,    2.2,    2.8,    2.6,    2.5,    2.4,    2.7,    2.5,    2.1
2005/08/30 05:30,   -0.5,   -0.8,   -0.0,    0.1,   -0.2,    0.0,   -0.8,   -1.1,   -0.3,    0.7,   -0.2,   -1.1,   -2.8,   -2.3,   -1.8,   -0.1,    1.3,    2.3,    2.3,    2.9,  999.0,    2.8,    2.2,    2.7,    2.3,    1.6,    2.2,    2.7,    2.3,    1.4
2005/08/30 05:40,   -0.9,   -0.2,   -0.5,   -0.3,    0.3,    1.1,   -0.1,   -0.2,    0.1,    0.3,   -0.3,   -1.1,   -2.5,   -2.1,   -1.1,    0.8,    2.2,    2.7,    2.3,    1.4,    0.4,    2.6,    2.8,    1.9,    1.7,    1.6,    1.9,    1.9,    2.3,    1.6
2005/08/30 05:50,   -0.9,   -0.9,    1.2,   -0.6,    0.3,    0.7,    0.1,    0.1,    0.6,    0.9,   -0.0,   -0.4,   -1.4,   -0.8,    1.1,    2.6,    4.3,    4.6,    3.8,    3.5,    2.2,    2.5,    2.9,    1.5,    1.9,    1.8,    2.0,    2.3,    2.5,    1.7
2005/08/30 06:00,   -0.6,    0.7,    0.4,   -0.0,    0.2,    0.5,    0.0,   -0.1,    0.0,   -0.0,   -0.3,   -1.2,   -1.6,   -0.8,   -0.1,    1.7,    2.6,    2.2,    2.3,    2.2,    2.4,  999.0,    1.1,    2.3,    3.0,    2.8,    2.0,    1.7,    1.6,    1.3
2005/08/30 06:10,   -1.6,    0.2,    0.0,   -0.2,   -0.5,    0.1,   -0.8,   -0.5,    0.2,   -0.1,    0.0,   -1.3,   -0.8,   -0.2,    1.0,    2.8,    3.2,    2.3,    2.1,    3.1,    2.4,  999.0,    2.3,    2.3,    2.6,    2.4,    2.1,    1.3,    1.4,    0.8
2005/08/30 06:20,    0.6,    0.6,    1.0,    0.0,   -0.3,    0.2,   -0.4,    0.3,    0.5,    0.5,    0.0,   -1.4,   -0.5,    0.8,    1.9,    3.3,    2.4,    1.6,    1.8,    2.6,    2.4,  999.0,    1.9,    2.4,    2.5,    2.2,    1.8,    1.5,    0.9,    0.5
2005/08/30 06:30,    1.2,    0.9,    1.2,    0.2,   -1.2,   -0.4,   -0.4,    0.6,   -0.1,   -0.1,   -1.4,   -0.8,    0.2,    1.8,    2.2,    2.3,    1.8,    1.0,    1.7,    1.0,    1.6,  999.0,    3.4,    2.8,    2.7,    2.3,    1.9,    0.6,    0.6,   -0.1
2005/08/30 06:40,    1.9,    1.5,    0.9,   -0.3,   -0.5,   -0.8,   -0.3,    0.1,    0.2,   -0.7,   -1.3,    0.5,    1.7,    2.6,    4.0,    3.0,    2.6,    2.0,    1.5,    2.0,    2.7,  999.0,    2.2,    3.0,    3.1,    2.3,    1.8,    1.1,    0.7,    0.3
2005/08/30 06:50,    1.9,    1.9,    1.3,    0.3,   -0.0,   -0.4,    0.3,    0.5,   -0.0,   -0.4,    0.4,    1.9,    4.0,    3.6,    2.6,    2.9,    3.2,    3.2,    3.0,    3.4,    2.3,    1.3,    1.9,    3.3,    2.9,    2.4,    1.3,    1.0,    0.9,    0.1
2005/08/30 07:00,    2.3,    2.3,    1.4,    0.6,    0.1,   -0.1,    0.3,    0.7,    0.3,   -0.5,    0.8,    2.6,    4.3,    3.5,    3.8,    4.0,    4.1,    3.8,    3.8,    4.2,    4.4,    2.8,    2.0,    3.1,    2.8,    2.6,    1.5,    1.0,    0.7,   -0.2
2005/08/30 07:10,    2.2,    3.0,    2.0,    0.8,    0.5,   -0.0,   -0.1,    0.3,    0.1,   -0.3,    1.0,    3.3,    3.4,    2.7,    2.6,    2.9,    3.0,    2.4,    2.3,    2.7,    2.4,    2.5,    2.2,    2.5,    1.8,    1.4,    0.6,    0.4,    0.1,   -0.7
2005/08/30 07:20,    2.6,    3.1,    2.6,    1.3,    0.9,    0.5,    0.1,    0.0,    1.4,    0.4,    1.6,    2.3,    2.5,    2.0,    2.9,    2.7,    2.8,    2.7,    3.1,    2.9,    3.6,    1.1,    0.9,    1.1,    1.3,    0.7,   -0.2,   -0.6,   -0.8,   -1.2
2005/08/30 07:30,    3.3,    3.1,    3.7,    0.8,    1.6,    0.1,   -0.3,   -0.9,   -0.2,    0.1,    0.2,    1.7,    2.6,    1.6,    1.3,    1.8,    1.8,    2.7,    2.9,    3.1,    3.5,    0.8,    0.4,    0.4,    0.3,    0.1,   -0.4,   -0.7,   -0.7,   -1.1
2005/08/30 07:40,    2.5,    2.2,    2.6,    1.5,    0.2,   -0.2,   -0.3,   -0.3,    0.0,    0.2,    0.4,    1.5,    2.3,    2.1,    1.6,    1.8,    1.0,    1.1,    1.5,    1.2,   -0.2,   -0.3,   -1.2,   -0.2,    0.2,    0.2,   -0.2,   -0.6,   -0.7,   -0.8
2005/08/30 07:50,    2.0,    2.7,    2.3,    1.3,    1.0,    0.4,   -0.2,   -0.4,    0.4,    0.9,    1.0,    2.0,    3.1,    2.2,    1.5,    1.9,    1.8,    1.5,    0.0,   -1.2,   -0.6,  999.0,   -1.9,   -1.1,   -0.2,   -0.0,   -0.2,   -0.5,   -0.4,   -0.1
2005/08/30 08:00,    2.5,    2.8,    3.7,    2.1,    1.6,    0.9,    0.2,   -0.4,   -0.3,    0.3,    0.8,    1.3,    1.6,    0.1,   -0.1,   -0.7,   -1.7,   -2.9,   -4.5,   -4.8,   -3.9,  999.0,   -2.0,   -1.4,   -0.6,   -0.2,   -0.5,   -0.8,   -0.2,    0.1
2005/08/30 08:10,    2.2,    2.9,    2.4,    1.5,    1.4,    0.2,   -0.3,   -1.0,   -1.1,   -0.0,    1.3,    2.6,    2.0,    1.2,    0.4,   -0.1,   -1.1,   -2.4,   -3.8,   -4.5,   -4.2,   -3.4,   -2.9,   -2.2,   -0.5,    0.3,    0.1,   -0.0,    0.3,    0.3
2005/08/30 08:20,    2.6,    2.8,    2.4,    1.7,    1.7,    0.9,    0.3,   -0.6,   -1.0,   -0.6,    0.2,    1.3,    0.6,   -0.6,   -1.4,   -1.6,   -3.5,   -3.2,   -3.6,   -3.7,   -3.9,   -2.9,   -2.4,   -0.9,    0.4,    0.2,   -0.3,    0.0,    0.4,   -0.1
2005/08/30 08:30,    3.2,    2.6,    3.1,    2.2,    1.8,    0.9,    0.2,   -0.3,   -0.6,   -1.1,   -0.4,    1.0,    1.2,   -0.7,   -1.5,   -1.4,   -1.9,   -3.5,   -3.3,   -3.1,   -2.4,   -1.7,   -2.3,   -0.9,    0.2,    0.2,   -0.0,    0.4,   -0.0,   -0.2
2005/08/30 08:40,    6.9,    5.3,    4.2,    4.1,    2.8,    1.6,    0.1,   -0.8,   -1.4,   -1.3,   -1.1,   -0.9,    1.0,   -1.2,   -1.5,   -2.3,   -4.9,   -4.9,   -4.6,   -2.1,   -1.4,   -1.2,   -1.3,   -1.0,    0.0,   -0.2,    0.1,    0.9,    0.2,    0.1
2005/08/30 08:50,    2.6,    9.2,  999.0,   10.5,    2.8,  999.0,   -1.0,    0.3,   -1.6,    0.8,  999.0,   -0.0,    0.2,   -2.9,   -2.3,   -2.4,   -3.5,   -3.7,   -3.0,   -2.2,   -1.4,   -0.9,   -0.3,   -0.2,   -0.1,   -0.6,   -0.1,    0.2,   -0.3,   -0.1
2005/08/30 09:00,  999.0,  999.0,  999.0,  999.0,  999.0,  999.0,  999.0,  999.0,  999.0,   -0.7,   -1.9,   -3.0,    1.1,    0.3,   -1.0,   -1.5,   -2.2,   -1.4,   -1.1,    0.1,   -0.3,   -1.0,   -0.3,    0.1,    0.9,    0.4,    0.5,    0.4,    0.2,    0.1
2005/08/30 09:10,   -0.6,    0.9,    1.7,    4.1,    2.7,    2.3,    1.8,    0.2,   -0.5,    0.1,   -0.7,   -0.4,    0.7,    1.8,    0.6,   -0.3,   -0.7,   -0.2,    0.9,    1.1,    1.0,    0.2,   -0.2,   -0.6,    0.4,    0.4,   -0.0,  999.0,  999.0,  999.0
2005/08/30 09:20,    0.5,   -0.6,    0.8,    5.1,    3.7,    2.3,    1.1,    0.1,    0.7,   -0.4,   -0.6,   -0.1,    0.4,    1.6,    0.8,    0.6,   -0.9,    2.5,    2.3,    0.1,   -1.0,    0.8,  999.0,    3.8,    1.5,    0.3,    0.3,    0.6,   -0.0,   -0.3
2005/08/30 09:30,  999.0,  999.0,  999.0,  999.0,  999.0,  999.0,  999.0,  999.0,  999.0,  999.0,  999.0,  999.0,  999.0,  999.0,  999.0,  999.0,  999.0,  999.0,  999.0,  999.0,  999.0,   -4.0,  999.0,    1.4,    0.0,    0.3,    0.5,    0.5,   -0.4,   -1.2
2005/08/30 09:40,    0.7,  999.0,  999.0,  999.0,   -2.7,  999.0,  999.0,  999.0,  999.0,  999.0,  999.0,  999.0,  999.0,  999.0,  999.0,  999.0,  999.0,  999.0,  999.0,  999.0,  999.0,   -3.9,    2.7,    1.4,    1.9,    1.5,    0.5,    0.3,    0.4,   -0.2
2005/08/30 09:50,  999.0,  999.0,  999.0,  999.0,  999.0,  999.0,  999.0,  999.0,  999.0,  999.0,  999.0,  999.0,  999.0,  999.0,  999.0,  999.0,  999.0,  999.0,  999.0,  999.0,  999.0,  999.0,  999.0,  999.0,  999.0,  999.0,  999.0,  999.0,  999.0,  999.0
2005/08/30 10:00,    1.2,    1.9,    4.8,  999.0,  999.0,  999.0,  999.0,  999.0,  999.0,  999.0,  999.0,  999.0,  999.0,  999.0,  999.0,  999.0,  999.0,  999.0,  999.0,  999.0,  999.0,  999.0,  999.0,  999.0,  999.0,  999.0,  999.0,  999.0,  999.0,  999.0
2005/08/30 10:10,   -1.2,    1.7,    0.8,    2.6,  999.0,  999.0,  999.0,  999.0,  999.0,  999.0,  999.0,  999.0,  999.0,  999.0,  999.0,  999.0,  999.0,  999.0,  999.0,  999.0,  999.0,  999.0,  999.0,  999.0,  999.0,  999.0,  999.0,  999.0,  999.0,  999.0
2005/08/30 10:20,   -0.5,   -0.0,    0.2,  999.0,  999.0,  999.0,  999.0,  999.0,  999.0,  999.0,  999.0,  999.0,  999.0,  999.0,  999.0,  999.0,  999.0,  999.0,  999.0,  999.0,  999.0,  999.0,  999.0,  999.0,  999.0,  999.0,  999.0,  999.0,  999.0,  999.0
2005/08/30 10:30,   -0.7,    0.1,    0.0,    0.2,  999.0,  999.0,  999.0,  999.0,  999.0,  999.0,  999.0,  999.0,  999.0,  999.0,  999.0,  999.0,  999.0,  999.0,  999.0,  999.0,  999.0,  999.0,  999.0,  999.0,  999.0,  999.0,  999.0,  999.0,  999.0,  999.0
2005/08/30 10:40,   -0.5,    0.4,  999.0,  999.0,  999.0,  999.0,  999.0,  999.0,  999.0,  999.0,  999.0,  999.0,  999.0,  999.0,  999.0,  999.0,  999.0,  999.0,  999.0,  999.0,  999.0,  999.0,  999.0,  999.0,  999.0,  999.0,  999.0,  999.0,  999.0,  999.0
2005/08/30 10:50,    5.5,    1.0,  999.0,  999.0,  999.0,  999.0,  999.0,  999.0,  999.0,  999.0,  999.0,  999.0,  999.0,  999.0,  999.0,  999.0,  999.0,  999.0,  999.0,  999.0,  999.0,  999.0,  999.0,  999.0,  999.0,  999.0,  999.0,  999.0,  999.0,  999.0
2005/08/30 11:00,    2.2,  999.0,   -0.1,  999.0,  999.0,  999.0,  999.0,  999.0,  999.0,  999.0,  999.0,  999.0,  999.0,  999.0,  999.0,  999.0,  999.0,  999.0,  999.0,  999.0,  999.0,  999.0,  999.0,  999.0,  999.0,  999.0,  999.0,  999.0,  999.0,  999.0
2005/08/30 11:10,    0.7,    0.1,    0.6,  999.0,   -1.2,  999.0,  999.0,  999.0,  999.0,  999.0,  999.0,  999.0,  999.0,  999.0,  999.0,  999.0,  999.0,  999.0,  999.0,  999.0,  999.0,  999.0,  999.0,  999.0,  999.0,  999.0,  999.0,  999.0,  999.0,  999.0
2005/08/30 11:20,    0.4,    0.5,    2.5,    1.4,   -1.0,   -0.6,  999.0,  999.0,  999.0,  999.0,  999.0,  999.0,  999.0,  999.0,  999.0,  999.0,  999.0,  999.0,  999.0,  999.0,  999.0,  999.0,  999.0,  999.0,  999.0,  999.0,  999.0,  999.0,  999.0,  999.0
2005/08/30 11:30,    0.2,   -0.1,    1.0,    1.2,    0.3,  999.0,  999.0,  999.0,  999.0,  999.0,  999.0,  999.0,  999.0,  999.0,  999.0,  999.0,  999.0,  999.0,  999.0,  999.0,  999.0,  999.0,  999.0,  999.0,  999.0,  999.0,  999.0,  999.0,  999.0,  999.0
2005/08/30 11:40,   -2.4,   -1.7,   -0.3,    0.1,   -0.8,    0.3,    0.7,    2.6,  999.0,  999.0,  999.0,  999.0,  999.0,  999.0,  999.0,  999.0,  999.0,  999.0,  999.0,  999.0,  999.0,  999.0,  999.0,  999.0,  999.0,  999.0,  999.0,  999.0,  999.0,  999.0
2005/08/30 11:50,   -0.1,    0.3,    0.6,    0.8,   -0.4,   -0.7,   -0.3,   -0.8,   -4.6,  999.0,  999.0,  999.0,  999.0,  999.0,  999.0,  999.0,  999.0,  999.0,  999.0,  999.0,    2.4,  999.0,  999.0,  999.0,  999.0,  999.0,  999.0,  999.0,  999.0,  999.0
2005/08/30 12:00,    1.2,    1.7,   -1.2,    4.0,    4.8,   -0.7,   -2.0,   -0.5,   -1.8,    1.6,    3.2,  999.0,  999.0,  999.0,  999.0,  999.0,  999.0,  999.0,  999.0,  999.0,  999.0,  999.0,  999.0,  999.0,  999.0,  999.0,  999.0,  999.0,  999.0,  999.0
2005/08/30 12:10,    0.5,   -1.4,    1.0,   -0.3,    1.1,    1.7,    1.1,    2.9,   -3.4,    4.9,    3.2,   -0.3,    0.9,  999.0,  999.0,  999.0,  999.0,  999.0,    1.9,    0.2,  999.0,  999.0,  999.0,  999.0,  999.0,  999.0,  999.0,  999.0,  999.0,  999.0
2005/08/30 12:20,    1.2,    0.4,    0.9,    0.2,    0.0,   -0.7,   -1.2,   -1.3,   -0.5,  999.0,  999.0,  999.0,  999.0,  999.0,  999.0,  999.0,    1.1,  999.0,    2.3,  999.0,  999.0,  999.0,  999.0,  999.0,  999.0,  999.0,  999.0,  999.0,  999.0,  999.0
2005/08/30 12:30,    0.2,    0.2,    3.4,    1.5,    0.9,  999.0,   -1.7,   -1.5,   -3.8,   -5.2,   -8.8,   -5.7,  999.0,  999.0,  999.0,   -2.0,  999.0,  999.0,  999.0,  999.0,    2.2,    1.8,  999.0,  999.0,  999.0,  999.0,  999.0,  999.0,  999.0,  999.0
2005/08/30 12:40,   -0.4,    0.9,   -0.4,    0.6,    1.4,    0.6,    0.6,    1.0,   -0.6,   -1.1,   -0.6,    0.0,    0.6,    0.9,    0.1,   -1.0,  999.0,  999.0,  999.0,  999.0,  999.0,  999.0,  999.0,  999.0,  999.0,  999.0,  999.0,  999.0,  999.0,  999.0
2005/08/30 12:50,   -0.2,    2.3,    1.8,    1.9,    0.5,   -0.7,    0.6,   -1.1,   -1.0,   -2.0,   -3.6,   -2.4,   -1.9,   -0.0,   -1.5,    1.0,    2.0,  999.0,  999.0,  999.0,  999.0,  999.0,  999.0,  999.0,  999.0,  999.0,  999.0,  999.0,  999.0,  999.0
2005/08/30 13:00,    0.2,    3.3,    2.5,    2.0,   -1.0,    2.9,    2.2,    2.4,   -0.5,   -1.2,   -2.7,    0.2,   -0.9,   -1.2,   -0.8,   -0.4,    0.4,  999.0,  999.0,  999.0,  999.0,  999.0,  999.0,  999.0,  999.0,  999.0,  999.0,  999.0,  999.0,  999.0
2005/08/30 13:10,    0.0,    1.6,    1.5,    1.3,    0.7,   -0.8,   -3.7,   -1.8,   -1.4,   -1.1,    0.4,    1.9,    0.9,    1.2,   -2.2,    0.1,   -3.6,  999.0,  999.0,  999.0,  999.0,  999.0,  999.0,  999.0,  999.0,  999.0,  999.0,  999.0,  999.0,  999.0
2005/08/30 13:20,    0.9,   -1.0,    0.6,    0.9,    0.4,    0.2,   -0.2,   -0.5,    0.4,   -1.4,    0.0,  999.0,   -2.4,  999.0,   -0.3,   -2.9,   -0.2,  999.0,  999.0,  999.0,  999.0,  999.0,  999.0,  999.0,  999.0,  999.0,  999.0,  999.0,  999.0,  999.0
2005/08/30 13:30,   -1.5,    1.2,    0.9,   -0.2,    0.2,  999.0,  999.0,  999.0,    0.1,   -0.5,  999.0,   -0.0,   -1.7,   -0.9,    0.9,  999.0,  999.0,    1.7,  999.0,  999.0,  999.0,  999.0,  999.0,  999.0,  999.0,  999.0,  999.0,  999.0,  999.0,  999.0
2005/08/30 13:40,    0.1,    0.4,    0.1,    0.1,   -0.0,  999.0,  999.0,   -0.8,   -1.0,  999.0,  999.0,   -1.4,   -1.0,  999.0,  999.0,  999.0,  999.0,  999.0,    3.2,  999.0,  999.0,  999.0,  999.0,  999.0,  999.0,  999.0,  999.0,  999.0,  999.0,  999.0
2005/08/30 13:50,   -0.3,    1.2,    0.2,    1.0,   -0.4,  999.0,  999.0,  999.0,   -0.5,   -1.8,  999.0,  999.0,  999.0,   -0.4,   -0.2,   -2.4,  999.0,  999.0,  999.0,  999.0,  999.0,  999.0,  999.0,  999.0,  999.0,  999.0,  999.0,  999.0,  999.0,  999.0
2005/08/30 14:00,   -1.3,    1.0,    0.5,  999.0,  999.0,  999.0,  999.0,   -0.7,   -1.1,   -1.8,   -0.3,    0.1,  999.0,  999.0,  999.0,  999.0,  999.0,   -0.9,  999.0,  999.0,  999.0,  999.0,  999.0,  999.0,  999.0,  999.0,  999.0,  999.0,  999.0,  999.0
2005/08/30 14:10,   -1.8,   -1.5,   -0.3,    0.5,  999.0,  999.0,  999.0,   -0.9,   -0.4,   -0.7,    1.4,  999.0,  999.0,  999.0,  999.0,  999.0,   -1.8,    1.4,    3.4,  999.0,    2.3,    2.7,  999.0,    2.3,  999.0,  999.0,  999.0,  999.0,  999.0,  999.0
2005/08/30 14:20,   -1.2,   -0.5,    0.4,    0.8,   -1.2,    1.4,    2.0,   -0.3,   -1.0,  999.0,    0.5,  999.0,   -0.6,   -0.6,  999.0,    0.1,  999.0,    0.8,  999.0,  999.0,    2.0,    3.9,  999.0,  999.0,  999.0,  999.0,  999.0,  999.0,  999.0,  999.0
2005/08/30 14:30,   -0.7,   -1.4,    0.3,    1.6,  999.0,   -0.6,  999.0,   -1.1,  999.0,   -0.2,  999.0,   -0.4,  999.0,  999.0,    0.8,  999.0,  999.0,  999.0,  999.0,  999.0,  999.0,    2.4,    4.1,  999.0,  999.0,  999.0,  999.0,  999.0,  999.0,  999.0
2005/08/30 14:40,   -0.9,   -0.5,  999.0,    1.3,  999.0,  999.0,  999.0,   -1.0,   -1.1,   -0.6,  999.0,  999.0,  999.0,   -0.0,    1.3,    1.4,    1.2,   -0.8,    0.8,  999.0,    0.5,    2.1,    2.3,  999.0,  999.0,  999.0,  999.0,  999.0,  999.0,  999.0
2005/08/30 14:50,   -1.7,   -1.9,   -0.9,    0.1,    0.4,   -2.5,   -0.1,   -0.7,  999.0,  999.0,  999.0,  999.0,   -1.4,   -0.7,   -0.1,   -3.3,   -2.7,   -0.1,    1.8,    2.0,    1.0,    1.5,    0.4,  999.0,  999.0,  999.0,  999.0,  999.0,  999.0,  999.0
2005/08/30 15:00,   -1.5,   -1.4,   -1.2,    0.0,  999.0,   -0.9,    1.7,  999.0,    1.6,  999.0,  999.0,  999.0,   -0.8,  999.0,  999.0,    2.0,    3.9,    2.5,    2.7,  999.0,   -0.2,   -1.8,  999.0,   -0.8,  999.0,  999.0,  999.0,  999.0,  999.0,  999.0
2005/08/30 15:10,   -0.3,    0.2,    1.1,    2.8,   -0.3,   -0.3,    0.4,   -1.5,    0.3,   -0.4,  999.0,  999.0,   -1.0,    1.6,    0.1,  999.0,    0.5,  999.0,  999.0,  999.0,    2.4,    0.3,  999.0,  999.0,  999.0,  999.0,  999.0,  999.0,   -2.9,  999.0
2005/08/30 15:20,   -2.9,    1.0,    1.2,    0.9,    0.9,    0.5,    0.5,   -0.9,   -0.7,   -0.6,    1.4,  999.0,    1.3,   -0.3,    2.3,    0.1,    0.8,  999.0,   -0.7,    1.3,  999.0,  999.0,  999.0,   -1.0,  999.0,  999.0,  999.0,  999.0,  999.0,  999.0
2005/08/30 15:30,   -2.0,   -0.7,   -0.4,    0.9,  999.0,  999.0,  999.0,    0.9,  999.0,    0.7,  999.0,  999.0,  999.0,  999.0,  999.0,   -0.2,    2.7,    3.1,  999.0,  999.0,  999.0,  999.0,  999.0,  999.0,  999.0,  999.0,  999.0,  999.0,  999.0,  999.0
2005/08/30 15:40,   -1.9,   -2.1,   -1.0,    0.0,    1.6,    1.5,   -0.1,  999.0,   -0.8,   -1.5,  999.0,  999.0,   -0.2,   -0.0,  999.0,  999.0,    0.7,    1.1,    2.9,    2.1,    1.7,  999.0,  999.0,  999.0,  999.0,  999.0,  999.0,  999.0,  999.0,  999.0
2005/08/30 15:50,   -2.2,   -1.2,   -0.4,   -0.8,   -2.4,   -0.8,  999.0,   -0.3,  999.0,    0.3,  999.0,  999.0,  999.0,  999.0,    0.0,  999.0,  999.0,    0.6,    2.3,  999.0,  999.0,  999.0,  999.0,  999.0,  999.0,   -2.0,  999.0,  999.0,  999.0,  999.0
2005/08/30 16:00,   -2.9,   -2.1,   -1.9,   -0.5,  999.0,  999.0,  999.0,   -0.9,    1.0,  999.0,  999.0,   -0.1,    0.5,  999.0,  999.0,  999.0,  999.0,  999.0,  999.0,  999.0,  999.0,  999.0,  999.0,  999.0,  999.0,  999.0,  999.0,  999.0,  999.0,  999.0
2005/08/30 16:10,   -2.4,   -2.0,   -2.1,  999.0,  999.0,   -1.1,   -0.7,   -1.8,   -1.0,  999.0,  999.0,  999.0,  999.0,    1.1,  999.0,  999.0,  999.0,  999.0,    0.8,    3.2,   -1.7,  999.0,  999.0,  999.0,  999.0,  999.0,    0.2,  999.0,  999.0,  999.0
2005/08/30 16:20,   -2.5,   -1.7,   -2.5,   -1.1,  999.0,   -1.3,  999.0,   -1.4,  999.0,   -0.2,  999.0,  999.0,  999.0,   -1.2,  999.0,  999.0,  999.0,  999.0,  999.0,  999.0,  999.0,  999.0,  999.0,  999.0,  999.0,  999.0,    0.3,  999.0,  999.0,  999.0
2005/08/30 16:30,   -1.1,   -1.1,   -1.2,   -0.5,   -1.4,   -1.0,    0.6,   -1.1,   -0.3,    1.7,  999.0,  999.0,  999.0,  999.0,  999.0,  999.0,  999.0,  999.0,    4.5,  999.0,  999.0,    0.6,  999.0,  999.0,  999.0,  999.0,    0.8,  999.0,  999.0,  999.0
2005/08/30 16:40,   -0.5,   -1.1,   -1.4,   -1.1,   -2.3,   -0.7,  999.0,   -2.6,   -1.0,  999.0,   -0.6,  999.0,  999.0,    0.6,  999.0,  999.0,    3.1,    5.1,    6.6,    2.6,    2.5,    0.1,  999.0,  999.0,  999.0,  999.0,  999.0,  999.0,  999.0,  999.0
2005/08/30 16:50,   -1.8,   -1.3,   -3.9,   -3.0,   -1.0,   -0.4,   -0.5,    0.1,    0.1,    1.1,  999.0,  999.0,    4.1,    2.5,   -0.1,  999.0,  999.0,  999.0,  999.0,   -0.8,  999.0,  999.0,    2.0,  999.0,    1.1,  999.0,  999.0,  999.0,  999.0,  999.0
2005/08/30 17:00,   -1.6,   -6.6,   -1.5,   -0.5,   -1.1,   -1.0,  999.0,    1.2,   -0.1,  999.0,   -0.3,  999.0,  999.0,    0.1,   -0.2,  999.0,  999.0,  999.0,  999.0,  999.0,  999.0,  999.0,  999.0,  999.0,    0.8,  999.0,  999.0,  999.0,  999.0,  999.0
2005/08/30 17:10,   -0.1,   -0.5,   -0.4,   -1.1,   -1.5,   -0.1,   -0.4,   -1.1,   -0.3,    0.6,    0.2,    1.7,    1.0,    2.2,    2.6,  999.0,  999.0,  999.0,    8.8,    7.2,    5.5,    7.0,    3.6,    2.6,    1.6,    2.6,    0.7,  999.0,  999.0,  999.0
2005/08/30 17:20,   -0.0,   -0.3,   -1.9,   -1.9,   -2.7,   -2.8,   -1.3,   -2.2,   -0.4,   -0.9,   -1.6,    0.9,   -0.0,    0.9,  999.0,  999.0,   -2.2,   -0.8,    1.4,    4.6,    3.2,    1.4,    1.1,  999.0,    2.5,    2.3,  999.0,  999.0,  999.0,  999.0
2005/08/30 17:30,  999.0,  999.0,  999.0,    6.3,    2.7,   -2.1,   -0.8,   -0.5,    0.6,   -0.1,   -1.4,   -1.7,    0.5,   -0.6,   -2.3,   -1.4,  999.0,  999.0,  999.0,  999.0,  999.0,  999.0,  999.0,  999.0,   -1.0,  999.0,  999.0,   -1.3,  999.0,  999.0
2005/08/30 17:40,  999.0,  999.0,    2.1,    0.0,    0.5,   -1.1,   -0.3,    0.7,    0.2,    0.2,    0.2,   -2.4,    1.7,    0.3,   -0.3,    3.9,  999.0,  999.0,  999.0,  999.0,  999.0,  999.0,  999.0,  999.0,    1.0,  999.0,  999.0,  999.0,  999.0,  999.0
2005/08/30 17:50,  999.0,    2.7,  999.0,    1.9,    0.8,   -1.3,    0.0,    0.4,   -0.3,    0.8,    0.1,    1.7,    1.5,   -0.2,  999.0,  999.0,    2.5,   -0.1,  999.0,  999.0,  999.0,  999.0,  999.0,  999.0,  999.0,  999.0,  999.0,  999.0,  999.0,  999.0
2005/08/30 18:00,   -0.4,    0.5,  999.0,  999.0,    3.0,    1.8,  999.0,    0.1,  999.0,    2.5,  999.0,   -0.6,    0.1,  999.0,  999.0,    0.2,  999.0,  999.0,  999.0,  999.0,  999.0,  999.0,  999.0,  999.0,  999.0,  999.0,  999.0,  999.0,  999.0,  999.0
2005/08/30 18:10,   -0.9,  999.0,    0.1,    0.6,    1.9,    1.7,  999.0,   -0.3,    1.1,    0.7,    1.5,   -0.2,    0.4,    1.4,    0.6,    1.2,    1.9,  999.0,  999.0,  999.0,  999.0,  999.0,  999.0,  999.0,  999.0,  999.0,  999.0,  999.0,  999.0,  999.0
2005/08/30 18:20,   -0.6,  999.0,  999.0,    0.8,    0.9,    2.8,    2.7,  999.0,   -0.2,    1.1,    1.7,  999.0,  999.0,  999.0,  999.0,  999.0,  999.0,  999.0,  999.0,  999.0,  999.0,  999.0,  999.0,  999.0,  999.0,  999.0,  999.0,  999.0,  999.0,  999.0
2005/08/30 18:30,  999.0,   -0.1,  999.0,  999.0,    2.4,    2.2,  999.0,    0.1,  999.0,  999.0,  999.0,    1.5,  999.0,   -0.4,  999.0,   -0.5,  999.0,  999.0,  999.0,  999.0,  999.0,  999.0,  999.0,  999.0,  999.0,  999.0,  999.0,  999.0,  999.0,  999.0
2005/08/30 18:40,    3.0,   -0.0,  999.0,   -0.7,    2.6,    3.3,   -0.2,    0.1,   -0.3,   -0.5,    1.1,    1.6,    0.5,    1.1,  999.0,  999.0,  999.0,  999.0,  999.0,  999.0,  999.0,  999.0,  999.0,  999.0,  999.0,  999.0,  999.0,  999.0,  999.0,  999.0
2005/08/30 18:50,  999.0,  999.0,   -1.4,  999.0,    1.4,    1.6,   -1.1,   -1.7,   -0.9,   -0.5,  999.0,  999.0,  999.0,    1.3,    1.1,  999.0,  999.0,  999.0,  999.0,  999.0,  999.0,  999.0,  999.0,  999.0,    0.6,  999.0,  999.0,  999.0,  999.0,  999.0
2005/08/30 19:00,   -4.1,  999.0,   -0.6,  999.0,    0.9,  999.0,  999.0,  999.0,   -1.3,   -2.1,  999.0,  999.0,  999.0,    2.0,    1.1,  999.0,  999.0,  999.0,  999.0,  999.0,  999.0,  999.0,  999.0,  999.0,  999.0,  999.0,  999.0,  999.0,  999.0,  999.0
2005/08/30 19:10,    0.6,    4.8,    1.2,    1.4,   -1.3,   -1.8,   -0.6,   -2.2,   -2.2,    1.2,  999.0,  999.0,   -0.6,  999.0,  999.0,  999.0,  999.0,  999.0,  999.0,  999.0,  999.0,  999.0,  999.0,  999.0,  999.0,  999.0,  999.0,  999.0,  999.0,  999.0
2005/08/30 19:20,   -0.3,    3.6,   -3.8,   -0.1,    1.2,    1.5,    1.7,   -1.0,    2.1,    0.0,   -1.9,  999.0,    1.1,   -0.8,  999.0,  999.0,  999.0,  999.0,  999.0,  999.0,  999.0,  999.0,  999.0,  999.0,  999.0,  999.0,  999.0,  999.0,  999.0,  999.0
2005/08/30 19:30,   -1.6,  999.0,  999.0,    1.3,   -4.4,   -0.3,    2.4,   -0.2,   -2.2,  999.0,  999.0,  999.0,  999.0,  999.0,  999.0,  999.0,  999.0,  999.0,  999.0,  999.0,  999.0,  999.0,  999.0,  999.0,  999.0,  999.0,  999.0,  999.0,  999.0,  999.0
2005/08/30 19:40,   -1.5,   -0.9,  999.0,  999.0,   -0.7,   -1.2,    2.4,   -1.6,  999.0,   -0.3,    3.3,    0.5,    0.5,  999.0,  999.0,  999.0,  999.0,  999.0,  999.0,  999.0,  999.0,  999.0,  999.0,  999.0,  999.0,  999.0,  999.0,  999.0,  999.0,  999.0
2005/08/30 19:50,   -1.5,   -0.2,  999.0,    1.7,    0.1,    0.3,  999.0,   -2.3,   -0.8,    2.0,  999.0,  999.0,  999.0,  999.0,  999.0,  999.0,    1.9,  999.0,  999.0,  999.0,  999.0,  999.0,  999.0,  999.0,  999.0,  999.0,  999.0,  999.0,  999.0,  999.0
2005/08/30 20:00,   -1.6,   -1.3,    0.4,   -0.4,   -0.5,   -2.2,  999.0,    0.7,   -0.1,  999.0,  999.0,  999.0,  999.0,    2.1,  999.0,  999.0,  999.0,    4.2,    1.7,   -2.0,  999.0,  999.0,  999.0,  999.0,  999.0,  999.0,  999.0,  999.0,  999.0,  999.0
2005/08/30 20:10,   -1.3,   -0.7,  999.0,    0.5,    1.1,    0.2,  999.0,    0.6,    0.3,  999.0,    0.3,   -0.5,  999.0,    0.7,  999.0,    5.0,   -0.4,   -1.1,   -1.0,   -1.3,  999.0,  999.0,  999.0,  999.0,  999.0,  999.0,  999.0,  999.0,  999.0,  999.0
2005/08/30 20:20,  999.0,    0.1,  999.0,    2.3,    1.7,    0.6,  999.0,    1.5,   -0.4,  999.0,  999.0,    0.1,  999.0,  999.0,  999.0,  999.0,    1.4,    0.4,  999.0,    0.4,  999.0,    0.6,  999.0,  999.0,  999.0,  999.0,  999.0,  999.0,  999.0,  999.0
2005/08/30 20:30,   -1.0,  999.0,    0.1,    1.4,    1.9,    0.5,  999.0,  999.0,    1.4,  999.0,  999.0,  999.0,  999.0,  999.0,  999.0,  999.0,  999.0,  999.0,    1.5,   -0.9,   -0.9,  999.0,  999.0,  999.0,  999.0,  999.0,  999.0,  999.0,  999.0,  999.0
2005/08/30 20:40,   -0.6,  999.0,  999.0,   -1.3,    2.1,    2.1,    1.3,   -0.0,    3.5,    1.5,  999.0,  999.0,  999.0,  999.0,  999.0,  999.0,  999.0,  999.0,  999.0,   -2.2,  999.0,  999.0,   -2.1,  999.0,  999.0,  999.0,  999.0,  999.0,  999.0,  999.0
2005/08/30 20:50,   -1.5,  999.0,    3.6,    1.9,    1.7,    1.5,    1.9,    0.6,  999.0,    0.7,    1.6,   -0.6,   -0.2,    4.1,  999.0,  999.0,    1.5,  999.0,  999.0,  999.0,   -1.4,  999.0,  999.0,    0.3,  999.0,  999.0,  999.0,  999.0,  999.0,  999.0
2005/08/30 21:00,    1.5,  999.0,  999.0,  999.0,  999.0,    1.7,    1.2,    1.7,    1.4,    1.0,   -0.3,    0.7,    1.3,   -0.3,  999.0,    1.9,  999.0,  999.0,  999.0,    0.8,    0.1,  999.0,  999.0,  999.0,  999.0,  999.0,  999.0,  999.0,  999.0,  999.0
2005/08/30 21:10,   -0.2,    1.7,    0.8,    0.4,    1.0,    1.2,  999.0,  999.0,  999.0,    2.1,  999.0,    0.7,   -0.1,   -0.4,   -0.0,    1.6,    1.7,  999.0,  999.0,   -0.9,   -2.5,  999.0,   -1.0,  999.0,  999.0,  999.0,  999.0,  999.0,  999.0,  999.0
2005/08/30 21:20,    1.5,   -0.6,    0.5,    1.0,    2.3,    3.6,    3.3,  999.0,  999.0,    4.9,   -2.0,   -1.7,   -0.4,    1.4,    1.9,    0.8,    1.2,  999.0,  999.0,  999.0,  999.0,  999.0,   -0.7,  999.0,  999.0,  999.0,  999.0,    0.9,  999.0,   -0.6
2005/08/30 21:30,    1.0,    0.1,   -0.1,    0.2,    3.7,    3.4,    8.0,    5.2,  999.0,    6.2,    1.0,   -1.4,   -1.8,    2.5,    2.4,    2.6,    1.5,   -0.3,  999.0,    1.1,    2.7,  999.0,    1.3,  999.0,  999.0,  999.0,  999.0,  999.0,  999.0,  999.0
2005/08/30 21:40,    0.7,    0.8,    1.4,    1.9,    2.5,    3.7,    3.3,    5.8,    4.4,    4.5,    5.2,    5.4,    7.4,    8.0,    6.5,    3.3,    7.5,    4.9,    4.2,   10.8,    4.8,  999.0,    4.1,  999.0,  999.0,  999.0,  999.0,  999.0,  999.0,  999.0
2005/08/30 21:50,    1.7,    2.1,    3.2,    3.4,    4.1,    5.9,   10.6,    9.3,    6.4,    6.6,    8.3,    6.7,    6.9,    7.8,    7.5,    7.7,    6.3,  999.0,  999.0,  999.0,  999.0,  999.0,    2.4,    2.7,    2.5,    3.6,    5.8,    3.8,    4.0,    4.7
2005/08/30 22:00,    1.8,    1.4,    3.6,    4.6,    8.0,    8.9,    8.1,    7.6,    7.1,    6.5,    6.3,    7.3,    7.1,    6.8,    6.2,    4.4,    5.0,    4.4,    2.9,  999.0,  999.0,  999.0,  999.0,  999.0,    4.4,  999.0,  999.0,  999.0,  999.0,    9.6
2005/08/30 22:10,    1.6,    3.5,    4.0,   -0.4,    3.5,    4.6,    3.9,    3.8,    5.8,    7.0,    8.7,    5.6,    8.8,    9.0,    9.5,   10.5,    7.2,    8.8,    9.7,    5.1,    6.1,  999.0,    0.6,    1.0,  999.0,  999.0,   -0.3,    0.2,    1.8,    5.0
2005/08/30 22:20,    0.1,    0.5,    0.8,    3.2,    1.8,   -0.2,   -1.7,   -1.7,   -0.3,    0.4,    1.2,    1.8,    2.2,    2.2,    1.9,    2.3,    2.7,    1.1,    2.0,    6.7,    4.9,    6.1,  999.0,   -1.5,   -0.8,   -0.1,    0.6,    0.9,  999.0,    1.2
2005/08/30 22:30,   -1.6,   -0.8,    0.5,    5.4,    0.6,    0.5,    0.4,   -0.4,   -0.4,   -1.7,   -0.7,    0.3,    6.5,    6.0,   -0.7,   11.8,  999.0,  999.0,  999.0,  999.0,  999.0,  999.0,  999.0,   -2.5,    0.5,   -0.6,  999.0,  999.0,  999.0,  999.0
2005/08/30 22:40,   -0.5,   -0.6,    1.2,    2.7,    1.7,   -2.3,   -2.6,   -1.9,   -0.5,   -0.9,   -2.8,   -2.8,   -3.3,   -2.3,   -0.2,   -1.3,   -1.8,   -4.4,  999.0,  999.0,  999.0,  999.0,  999.0,  999.0,  999.0,  999.0,  999.0,  999.0,  999.0,  999.0
2005/08/30 22:50,   -1.4,    0.4,    0.8,   -1.4,   -2.9,   -3.2,   -3.6,   -5.8,   -5.3,  999.0,  999.0,  999.0,  999.0,  999.0,  999.0,  999.0,  999.0,  999.0,  999.0,  999.0,  999.0,  999.0,  999.0,  999.0,  999.0,  999.0,  999.0,  999.0,  999.0,  999.0
2005/08/30 23:00,   -0.8,    1.0,    2.6,  999.0,   -1.7,    0.7,  999.0,  999.0,  999.0,  999.0,  999.0,  999.0,  999.0,  999.0,  999.0,  999.0,  999.0,  999.0,  999.0,  999.0,  999.0,  999.0,  999.0,  999.0,  999.0,  999.0,  999.0,  999.0,  999.0,  999.0
2005/08/30 23:10,  999.0,  999.0,  999.0,  999.0,  999.0,  999.0,  999.0,  999.0,  999.0,  999.0,  999.0,  999.0,  999.0,  999.0,  999.0,  999.0,  999.0,  999.0,  999.0,  999.0,  999.0,  999.0,  999.0,  999.0,  999.0,  999.0,  999.0,  999.0,  999.0,  999.0
2005/08/30 23:20,  999.0,  999.0,   -4.8,  999.0,  999.0,  999.0,  999.0,  999.0,  999.0,  999.0,  999.0,  999.0,  999.0,  999.0,  999.0,  999.0,  999.0,  999.0,  999.0,  999.0,  999.0,  999.0,  999.0,  999.0,  999.0,  999.0,  999.0,  999.0,  999.0,  999.0
2005/08/30 23:30,  999.0,    3.5,  999.0,  999.0,  999.0,  999.0,  999.0,  999.0,  999.0,  999.0,  999.0,  999.0,  999.0,  999.0,  999.0,  999.0,  999.0,  999.0,  999.0,  999.0,  999.0,  999.0,  999.0,  999.0,  999.0,  999.0,  999.0,  999.0,  999.0,  999.0
2005/08/30 23:40,   -6.9,   -4.4,  999.0,  999.0,  999.0,  999.0,  999.0,  999.0,  999.0,  999.0,  999.0,  999.0,  999.0,  999.0,  999.0,  999.0,  999.0,  999.0,  999.0,  999.0,  999.0,  999.0,  999.0,  999.0,  999.0,  999.0,  999.0,  999.0,  999.0,  999.0
2005/08/30 23:50,  999.0,    2.3,   -1.9,  999.0,  999.0,  999.0,  999.0,  999.0,  999.0,  999.0,  999.0,  999.0,  999.0,  999.0,  999.0,  999.0,  999.0,  999.0,  999.0,  999.0,  999.0,  999.0,  999.0,  999.0,  999.0,  999.0,  999.0,  999.0,  999.0,  999.0
